Time,TemperatureF,DewpointF,PressureIn,WindDirection,WindDirectionDegrees,WindSpeedMPH,WindSpeedGustMPH,Humidity,HourlyPrecipIn,Conditions,Clouds,dailyrainin,SoftwareType,DateUTC
2013-03-10 00:02:00,34.0,32.0,-100.00,WSW,255,11.0,15.0,92,-99.99,,,-99.99,,2013-03-10 05:02:00,
2013-03-10 00:11:00,34.0,32.0,-100.00,WSW,255,11.0,15.0,92,-99.99,,,-99.99,,2013-03-10 05:11:00,
2013-03-10 00:22:00,34.0,32.0,-100.00,West,270,8.0,17.0,92,-99.99,,,-99.99,,2013-03-10 05:22:00,
2013-03-10 00:32:00,34.0,32.0,-100.00,WSW,255,9.0,14.0,93,-99.99,,,-99.99,,2013-03-10 05:32:00,
2013-03-10 00:42:00,34.0,32.0,-100.00,WSW,255,9.0,14.0,93,-99.99,,,-99.99,,2013-03-10 05:42:00,
2013-03-10 00:52:00,34.0,32.0,-100.00,WSW,245,8.0,16.0,93,-99.99,,,-99.99,,2013-03-10 05:52:00,
2013-03-10 01:02:00,34.0,32.0,-100.00,WSW,255,12.0,21.0,94,-99.99,,,-99.99,,2013-03-10 06:02:00,
2013-03-10 01:11:00,34.0,32.0,-100.00,WSW,255,12.0,21.0,94,-99.99,,,-99.99,,2013-03-10 06:11:00,
2013-03-10 01:22:00,34.0,33.0,-100.00,West,265,16.0,23.0,94,-99.99,,,-99.99,,2013-03-10 06:22:00,
2013-03-10 01:32:00,35.0,33.0,-100.00,West,275,11.0,21.0,94,-99.99,,,-99.99,,2013-03-10 06:32:00,
2013-03-10 01:42:00,35.0,33.0,-100.00,West,275,11.0,21.0,94,-99.99,,,-99.99,,2013-03-10 06:42:00,
2013-03-10 01:52:00,35.0,33.0,-100.00,West,280,9.0,21.0,94,-99.99,,,-99.99,,2013-03-10 06:52:00,
2013-03-10 03:02:00,35.0,33.0,-100.00,West,280,9.0,21.0,94,-99.99,,,-99.99,,2013-03-10 07:02:00,
2013-03-10 03:11:00,35.0,33.0,-100.00,West,280,9.0,21.0,94,-99.99,,,-99.99,,2013-03-10 07:11:00,
2013-03-10 03:21:00,35.0,33.0,-100.00,WNW,285,6.0,16.0,94,-99.99,,,-99.99,,2013-03-10 07:21:00,
2013-03-10 03:32:00,35.0,34.0,-100.00,WNW,300,10.0,19.0,94,-99.99,,,-99.99,,2013-03-10 07:32:00,
2013-03-10 03:42:00,35.0,34.0,-100.00,WNW,300,10.0,19.0,94,-99.99,,,-99.99,,2013-03-10 07:42:00,
2013-03-10 03:52:00,35.0,33.0,-100.00,West,275,11.0,21.0,93,-99.99,,,-99.99,,2013-03-10 07:52:00,
2013-03-10 04:02:00,35.0,33.0,-100.00,West,275,11.0,21.0,93,-99.99,,,-99.99,,2013-03-10 08:02:00,
2013-03-10 04:12:00,35.0,33.0,-100.00,West,275,11.0,21.0,93,-99.99,,,-99.99,,2013-03-10 08:12:00,
2013-03-10 04:21:00,35.0,33.0,-100.00,West,275,11.0,20.0,93,-99.99,,,-99.99,,2013-03-10 08:21:00,
2013-03-10 04:32:00,36.0,34.0,-100.00,West,280,10.0,19.0,93,-99.99,,,-99.99,,2013-03-10 08:32:00,
2013-03-10 04:42:00,36.0,34.0,-100.00,WNW,285,10.0,19.0,92,-99.99,,,-99.99,,2013-03-10 08:42:00,
2013-03-10 04:52:00,36.0,34.0,-100.00,West,280,10.0,16.0,92,-99.99,,,-99.99,,2013-03-10 08:52:00,
2013-03-10 05:02:00,36.0,34.0,-100.00,West,280,10.0,16.0,92,-99.99,,,-99.99,,2013-03-10 09:02:00,
2013-03-10 05:11:00,36.0,34.0,-100.00,West,280,10.0,16.0,92,-99.99,,,-99.99,,2013-03-10 09:11:00,
2013-03-10 05:21:00,36.0,34.0,-100.00,West,270,11.0,16.0,91,-99.99,,,-99.99,,2013-03-10 09:21:00,
2013-03-10 05:32:00,36.0,34.0,-100.00,West,275,8.0,15.0,91,-99.99,,,-99.99,,2013-03-10 09:32:00,
2013-03-10 05:42:00,36.0,34.0,-100.00,West,275,8.0,15.0,91,-99.99,,,-99.99,,2013-03-10 09:42:00,
2013-03-10 05:51:00,36.0,34.0,-100.00,WNW,295,11.0,22.0,91,-99.99,,,-99.99,,2013-03-10 09:51:00,
2013-03-10 06:02:00,36.0,34.0,-100.00,WNW,290,9.0,16.0,91,-99.99,,,-99.99,,2013-03-10 10:02:00,
2013-03-10 06:11:00,37.0,34.0,-100.00,WNW,295,5.0,14.0,90,-99.99,,,-99.99,,2013-03-10 10:11:00,
2013-03-10 06:21:00,37.0,34.0,-100.00,WNW,295,5.0,14.0,90,-99.99,,,-99.99,,2013-03-10 10:21:00,
2013-03-10 06:32:00,37.0,34.0,-100.00,WNW,295,7.0,11.0,91,-99.99,,,-99.99,,2013-03-10 10:32:00,
2013-03-10 06:42:00,37.0,34.0,-100.00,WNW,295,7.0,11.0,91,-99.99,,,-99.99,,2013-03-10 10:42:00,
2013-03-10 06:52:00,37.0,34.0,-100.00,West,280,6.0,13.0,91,-99.99,,,-99.99,,2013-03-10 10:52:00,
2013-03-10 07:02:00,37.0,35.0,-100.00,WNW,295,8.0,14.0,92,-99.99,,,-99.99,,2013-03-10 11:02:00,
2013-03-10 07:12:00,37.0,35.0,-100.00,WNW,295,8.0,14.0,92,-99.99,,,-99.99,,2013-03-10 11:12:00,
2013-03-10 07:21:00,37.0,35.0,-100.00,WNW,300,8.0,14.0,92,-99.99,,,-99.99,,2013-03-10 11:21:00,
2013-03-10 07:32:00,37.0,35.0,-100.00,NW,305,6.0,12.0,92,-99.99,,,-99.99,,2013-03-10 11:32:00,
2013-03-10 07:42:00,37.0,35.0,-100.00,NW,305,6.0,12.0,92,-99.99,,,-99.99,,2013-03-10 11:42:00,
2013-03-10 07:52:00,37.0,35.0,-100.00,WNW,295,6.0,13.0,92,-99.99,,,-99.99,,2013-03-10 11:52:00,
2013-03-10 08:02:00,37.0,35.0,-100.00,WNW,295,5.0,11.0,92,-99.99,,,-99.99,,2013-03-10 12:02:00,
2013-03-10 08:11:00,37.0,35.0,-100.00,WNW,295,5.0,11.0,92,-99.99,,,-99.99,,2013-03-10 12:11:00,
2013-03-10 08:21:00,37.0,35.0,-100.00,NW,310,5.0,11.0,92,-99.99,,,-99.99,,2013-03-10 12:21:00,
2013-03-10 08:32:00,37.0,35.0,-100.00,NW,310,4.0,8.0,92,-99.99,,,-99.99,,2013-03-10 12:32:00,
2013-03-10 08:42:00,37.0,35.0,-100.00,NW,310,4.0,8.0,92,-99.99,,,-99.99,,2013-03-10 12:42:00,
2013-03-10 08:51:00,37.0,35.0,-100.00,NNW,330,5.0,10.0,93,-99.99,,,-99.99,,2013-03-10 12:51:00,
2013-03-10 09:01:00,37.0,35.0,-100.00,NNW,330,5.0,10.0,93,-99.99,,,-99.99,,2013-03-10 13:01:00,
2013-03-10 09:11:00,37.0,35.0,-100.00,NNW,330,5.0,10.0,93,-99.99,,,-99.99,,2013-03-10 13:11:00,
2013-03-10 09:21:00,37.0,35.0,-100.00,WNW,300,6.0,11.0,93,-99.99,,,-99.99,,2013-03-10 13:21:00,
2013-03-10 09:32:00,37.0,36.0,-100.00,WNW,290,4.0,9.0,93,-99.99,,,-99.99,,2013-03-10 13:32:00,
2013-03-10 09:42:00,37.0,36.0,-100.00,WNW,290,4.0,9.0,93,-99.99,,,-99.99,,2013-03-10 13:42:00,
2013-03-10 09:52:00,37.0,36.0,-100.00,NNW,330,4.0,8.0,94,-99.99,,,-99.99,,2013-03-10 13:52:00,
2013-03-10 10:02:00,37.0,36.0,-100.00,NNW,330,4.0,8.0,94,-99.99,,,-99.99,,2013-03-10 14:02:00,
2013-03-10 10:22:00,38.0,36.0,-100.00,WNW,295,4.0,6.0,94,-99.99,,,-99.99,,2013-03-10 14:22:00,
2013-03-10 10:32:00,38.0,36.0,-100.00,WNW,300,4.0,7.0,94,-99.99,,,-99.99,,2013-03-10 14:32:00,
2013-03-10 10:42:00,38.0,36.0,-100.00,WNW,300,4.0,7.0,94,-99.99,,,-99.99,,2013-03-10 14:42:00,
2013-03-10 10:51:00,38.0,37.0,-100.00,WNW,295,4.0,7.0,94,-99.99,,,-99.99,,2013-03-10 14:51:00,
2013-03-10 11:01:00,38.0,37.0,-100.00,WNW,295,4.0,7.0,94,-99.99,,,-99.99,,2013-03-10 15:01:00,
2013-03-10 11:21:00,39.0,38.0,-100.00,NW,310,4.0,10.0,95,-99.99,,,-99.99,,2013-03-10 15:21:00,
2013-03-10 11:32:00,40.0,38.0,-100.00,NW,305,5.0,10.0,95,-99.99,,,-99.99,,2013-03-10 15:32:00,
2013-03-10 11:42:00,40.0,38.0,-100.00,NW,305,5.0,10.0,95,-99.99,,,-99.99,,2013-03-10 15:42:00,
2013-03-10 11:52:00,40.0,38.0,-100.00,WNW,290,6.0,14.0,95,-99.99,,,-99.99,,2013-03-10 15:52:00,
2013-03-10 12:02:00,40.0,38.0,-100.00,WNW,290,6.0,14.0,95,-99.99,,,-99.99,,2013-03-10 16:02:00,
2013-03-10 13:52:00,37.0,36.0,-100.00,ENE,65,3.0,14.0,95,-99.99,,,-99.99,,2013-03-10 17:52:00,
2013-03-10 14:01:00,37.0,36.0,-100.00,ENE,65,3.0,14.0,95,-99.99,,,-99.99,,2013-03-10 18:01:00,
2013-03-10 14:22:00,36.0,35.0,-100.00,North,0,3.0,11.0,96,-99.99,,,-99.99,,2013-03-10 18:22:00,
2013-03-10 14:32:00,36.0,35.0,-100.00,North,0,3.0,11.0,96,-99.99,,,-99.99,,2013-03-10 18:32:00,
2013-03-10 14:52:00,36.0,35.0,-100.00,NE,35,4.0,8.0,96,-99.99,,,-99.99,,2013-03-10 18:52:00,
2013-03-10 15:02:00,36.0,36.0,-100.00,NE,55,4.0,10.0,97,-99.99,,,-99.99,,2013-03-10 19:02:00,
2013-03-10 15:11:00,36.0,36.0,-100.00,NE,55,4.0,10.0,97,-99.99,,,-99.99,,2013-03-10 19:11:00,
2013-03-10 15:22:00,36.0,35.0,-100.00,NE,35,3.0,11.0,97,-99.99,,,-99.99,,2013-03-10 19:22:00,
2013-03-10 15:32:00,36.0,35.0,-100.00,NNE,30,4.0,6.0,97,-99.99,,,-99.99,,2013-03-10 19:32:00,
2013-03-10 15:42:00,36.0,35.0,-100.00,NNE,30,4.0,6.0,97,-99.99,,,-99.99,,2013-03-10 19:42:00,
2013-03-10 15:52:00,36.0,36.0,-100.00,East,80,3.0,6.0,97,-99.99,,,-99.99,,2013-03-10 19:52:00,
2013-03-10 16:02:00,36.0,36.0,-100.00,East,80,3.0,6.0,97,-99.99,,,-99.99,,2013-03-10 20:02:00,
2013-03-10 16:22:00,36.0,36.0,-100.00,ENE,60,3.0,6.0,97,-99.99,,,-99.99,,2013-03-10 20:22:00,
2013-03-10 16:32:00,37.0,36.0,-100.00,North,5,1.0,4.0,97,-99.99,,,-99.99,,2013-03-10 20:32:00,
2013-03-10 16:43:00,37.0,36.0,-100.00,North,5,1.0,4.0,97,-99.99,,,-99.99,,2013-03-10 20:43:00,
2013-03-10 16:52:00,37.0,37.0,-100.00,NW,325,4.0,4.0,97,-99.99,,,-99.99,,2013-03-10 20:52:00,
2013-03-10 17:02:00,37.0,37.0,-100.00,NW,325,4.0,4.0,97,-99.99,,,-99.99,,2013-03-10 21:02:00,
2013-03-10 17:23:00,36.0,36.0,-100.00,North,5,2.0,5.0,97,-99.99,,,-99.99,,2013-03-10 21:23:00,
2013-03-10 17:33:00,36.0,36.0,-100.00,North,5,1.0,4.0,97,-99.99,,,-99.99,,2013-03-10 21:33:00,
2013-03-10 17:42:00,36.0,36.0,-100.00,North,5,1.0,4.0,97,-99.99,,,-99.99,,2013-03-10 21:42:00,
2013-03-10 17:52:00,36.0,35.0,-100.00,NNE,25,4.0,4.0,97,-99.99,,,-99.99,,2013-03-10 21:52:00,
2013-03-10 18:03:00,37.0,36.0,-100.00,WNW,290,1.0,3.0,97,-99.99,,,-99.99,,2013-03-10 22:03:00,
2013-03-10 18:12:00,37.0,36.0,-100.00,WNW,290,1.0,3.0,97,-99.99,,,-99.99,,2013-03-10 22:12:00,
2013-03-10 18:22:00,37.0,36.0,-100.00,NW,325,1.0,4.0,97,-99.99,,,-99.99,,2013-03-10 22:22:00,
2013-03-10 18:32:00,37.0,36.0,-100.00,ESE,110,4.0,8.0,97,-99.99,,,-99.99,,2013-03-10 22:32:00,
2013-03-10 18:43:00,37.0,36.0,-100.00,ESE,110,4.0,8.0,97,-99.99,,,-99.99,,2013-03-10 22:43:00,
2013-03-10 18:52:00,37.0,36.0,-100.00,SE,135,1.0,8.0,97,-99.99,,,-99.99,,2013-03-10 22:52:00,
2013-03-10 19:03:00,36.0,36.0,-100.00,SSE,150,12.0,18.0,97,-99.99,,,-99.99,,2013-03-10 23:03:00,
2013-03-10 19:12:00,36.0,36.0,-100.00,SSE,150,12.0,18.0,97,-99.99,,,-99.99,,2013-03-10 23:12:00,
2013-03-10 19:23:00,36.0,35.0,-100.00,SW,235,1.0,9.0,97,-99.99,,,-99.99,,2013-03-10 23:23:00,
2013-03-10 19:33:00,36.0,35.0,-100.00,South,170,2.0,10.0,97,-99.99,,,-99.99,,2013-03-10 23:33:00,
2013-03-10 19:43:00,36.0,35.0,-100.00,South,170,2.0,10.0,97,-99.99,,,-99.99,,2013-03-10 23:43:00,
2013-03-10 19:52:00,35.0,35.0,-100.00,SSE,160,4.0,6.0,97,-99.99,,,-99.99,,2013-03-10 23:52:00,
2013-03-10 20:03:00,35.0,34.0,-100.00,SE,135,7.0,11.0,97,-99.99,,,-99.99,,2013-03-11 00:03:00,
2013-03-10 20:13:00,35.0,34.0,-100.00,SE,135,7.0,11.0,97,-99.99,,,-99.99,,2013-03-11 00:13:00,
2013-03-10 20:23:00,35.0,34.0,-100.00,SSE,165,6.0,11.0,97,-99.99,,,-99.99,,2013-03-11 00:23:00,
2013-03-10 20:33:00,35.0,34.0,-100.00,SSE,160,4.0,7.0,98,-99.99,,,-99.99,,2013-03-11 00:33:00,
2013-03-10 20:43:00,35.0,34.0,-100.00,SSE,160,4.0,7.0,98,-99.99,,,-99.99,,2013-03-11 00:43:00,
2013-03-10 20:52:00,34.0,34.0,-100.00,SE,145,6.0,9.0,98,-99.99,,,-99.99,,2013-03-11 00:52:00,
2013-03-10 21:03:00,34.0,34.0,-100.00,SE,140,8.0,16.0,98,-99.99,,,-99.99,,2013-03-11 01:03:00,
2013-03-10 21:13:00,34.0,34.0,-100.00,SE,140,8.0,16.0,98,-99.99,,,-99.99,,2013-03-11 01:13:00,
2013-03-10 21:23:00,34.0,33.0,-100.00,South,190,3.0,8.0,98,-99.99,,,-99.99,,2013-03-11 01:23:00,
2013-03-10 21:32:00,34.0,33.0,-100.00,SSE,160,4.0,10.0,98,-99.99,,,-99.99,,2013-03-11 01:32:00,
2013-03-10 21:43:00,34.0,33.0,-100.00,SSE,160,4.0,10.0,98,-99.99,,,-99.99,,2013-03-11 01:43:00,
2013-03-10 21:53:00,34.0,33.0,-100.00,SE,140,5.0,10.0,98,-99.99,,,-99.99,,2013-03-11 01:53:00,
2013-03-10 22:03:00,34.0,33.0,-100.00,SE,140,4.0,7.0,98,-99.99,,,-99.99,,2013-03-11 02:03:00,
2013-03-10 22:13:00,34.0,33.0,-100.00,SE,140,4.0,7.0,98,-99.99,,,-99.99,,2013-03-11 02:13:00,
2013-03-10 22:23:00,34.0,33.0,-100.00,SE,140,2.0,6.0,98,-99.99,,,-99.99,,2013-03-11 02:23:00,
2013-03-10 22:32:00,34.0,33.0,-100.00,South,185,2.0,6.0,98,-99.99,,,-99.99,,2013-03-11 02:32:00,
2013-03-10 22:42:00,34.0,33.0,-100.00,South,185,2.0,6.0,98,-99.99,,,-99.99,,2013-03-11 02:42:00,
2013-03-10 22:52:00,34.0,33.0,-100.00,SE,145,3.0,5.0,98,-99.99,,,-99.99,,2013-03-11 02:52:00,
2013-03-10 23:02:00,33.0,33.0,-100.00,SE,145,6.0,10.0,98,-99.99,,,-99.99,,2013-03-11 03:02:00,
2013-03-10 23:12:00,33.0,33.0,-100.00,SE,145,6.0,10.0,98,-99.99,,,-99.99,,2013-03-11 03:12:00,
2013-03-10 23:22:00,33.0,33.0,-100.00,SE,145,7.0,12.0,98,-99.99,,,-99.99,,2013-03-11 03:22:00,
2013-03-10 23:32:00,33.0,33.0,-100.00,SSE,150,8.0,11.0,98,-99.99,,,-99.99,,2013-03-11 03:32:00,
2013-03-10 23:42:00,33.0,33.0,-100.00,SSE,150,8.0,11.0,98,-99.99,,,-99.99,,2013-03-11 03:42:00,
2013-03-10 23:52:00,33.0,33.0,-100.00,SSE,165,6.0,11.0,98,-99.99,,,-99.99,,2013-03-11 03:52:00,